weather.gov     
National Weather Service

Terminal Aerodrome Forecast
NWS Homepage
This page is being discontinued on March 12, 2014.
The same data is available at this site. Please update your bookmarks.
Thank you, and we apologize for the inconvenience.
Please send an email to SR-SRH.Webmaster@noaa.gov with any concerns.


Current Version
Previous Version:    01  02  03  04  05  06  07  08  09  10  11  12  13  14  
[Printable]
422
FTUS41 KBOX 252008 AAA
TAFBDL
TAF AMD
KBDL 252008Z 2520/2624 25011KT P6SM SCT045
     FM252300 21005KT P6SM BKN060
     FM260500 23004KT P6SM SCT050
     FM261000 27007KT P6SM BKN250
     FM261200 28011G20KT P6SM BKN050=




422
FTUS41 KBOX 252008 AAA
TAFBDL
TAF AMD
KBDL 252008Z 2520/2624 25011KT P6SM SCT045
     FM252300 21005KT P6SM BKN060
     FM260500 23004KT P6SM SCT050
     FM261000 27007KT P6SM BKN250
     FM261200 28011G20KT P6SM BKN050=


U.S. Dept. of Commerce
NOAA National Weather Service
1325 East West Highway
Silver Spring, MD 20910
E-mail: w-nws.webmaster@noaa.gov
Page last modified: May 16, 2007
NATIONAL WEATHER SERVICE: for Safety, for Work, for Fun - FOR LIFE